TimeCST,TemperatureF,Dew PointF,Humidity,Sea Level PressureIn,VisibilityMPH,Wind Direction,Wind SpeedMPH,Gust SpeedMPH,PrecipitationIn,Events,Conditions,WindDirDegrees,DateUTC
12:53 AM,21.9,10.0,60,29.98,10.0,West,13.8,20.7,N/A,,Overcast,270,2012-11-12 06:53:00
1:53 AM,21.9,12.0,66,29.98,9.0,WSW,10.4,19.6,0.00,,Overcast,250,2012-11-12 07:53:00
2:53 AM,19.9,9.0,62,29.98,10.0,WSW,17.3,23.0,0.00,,Scattered Clouds,250,2012-11-12 08:53:00
3:14 AM,19.4,10.4,68,29.94,10.0,WSW,13.8,23.0,N/A,,Mostly Cloudy,250,2012-11-12 09:14:00
3:53 AM,19.9,10.9,68,29.99,10.0,WSW,10.4,-,N/A,,Overcast,250,2012-11-12 09:53:00
4:53 AM,19.9,12.0,71,30.00,10.0,SW,8.1,-,N/A,,Mostly Cloudy,230,2012-11-12 10:53:00
5:00 AM,19.4,12.2,74,29.96,10.0,WSW,6.9,-,N/A,,Partly Cloudy,240,2012-11-12 11:00:00
5:20 AM,19.4,12.2,74,29.96,10.0,SW,5.8,-,N/A,,Mostly Cloudy,230,2012-11-12 11:20:00
5:37 AM,19.4,12.2,74,29.95,10.0,WSW,8.1,-,N/A,,Mostly Cloudy,240,2012-11-12 11:37:00
5:53 AM,19.9,12.9,74,29.99,8.0,SW,8.1,-,N/A,,Mostly Cloudy,230,2012-11-12 11:53:00
6:37 AM,19.4,15.8,86,29.95,2.0,SW,9.2,18.4,0.00,Snow,Light Snow,230,2012-11-12 12:37:00
6:44 AM,19.4,15.8,86,29.95,2.0,WSW,6.9,19.6,0.00,Snow,Light Snow,240,2012-11-12 12:44:00
6:53 AM,19.9,16.0,85,30.00,1.8,WSW,11.5,-,0.00,Snow,Light Snow,240,2012-11-12 12:53:00
7:00 AM,19.4,15.8,86,29.95,3.0,SW,10.4,-,0.00,Snow,Light Snow,230,2012-11-12 13:00:00
7:07 AM,19.4,15.8,86,29.96,4.0,SW,10.4,-,0.00,Snow,Light Snow,230,2012-11-12 13:07:00
7:13 AM,21.2,15.8,80,29.96,2.5,SW,11.5,-,0.00,Snow,Light Snow,230,2012-11-12 13:13:00
7:24 AM,21.2,17.6,86,29.96,1.0,SW,10.4,-,0.00,Snow,Light Snow,230,2012-11-12 13:24:00
7:53 AM,21.0,17.1,85,30.01,3.0,WSW,10.4,17.3,0.00,Snow,Light Snow,240,2012-11-12 13:53:00
8:01 AM,21.2,15.8,80,29.97,7.0,WSW,13.8,20.7,0.00,,Mostly Cloudy,250,2012-11-12 14:01:00
8:11 AM,21.2,15.8,80,29.97,9.0,WSW,11.5,-,0.00,,Scattered Clouds,250,2012-11-12 14:11:00
8:32 AM,21.2,14.0,74,29.97,10.0,West,12.7,-,0.01,,Mostly Cloudy,260,2012-11-12 14:32:00
8:53 AM,21.9,14.0,72,30.03,10.0,West,16.1,-,0.01,,Mostly Cloudy,280,2012-11-12 14:53:00
9:32 AM,23.0,12.2,63,30.00,10.0,West,13.8,-,N/A,,Mostly Cloudy,270,2012-11-12 15:32:00
9:43 AM,24.8,12.2,59,30.00,10.0,West,15.0,-,N/A,,Mostly Cloudy,270,2012-11-12 15:43:00
9:53 AM,23.0,14.0,68,30.04,6.0,West,12.7,23.0,0.00,Snow,Light Snow,260,2012-11-12 15:53:00
10:02 AM,23.0,14.0,68,30.01,9.0,West,11.5,-,0.00,Snow,Light Snow,260,2012-11-12 16:02:00
10:35 AM,23.0,12.2,63,30.01,10.0,West,15.0,-,0.00,,Overcast,260,2012-11-12 16:35:00
10:53 AM,24.1,12.9,62,30.06,9.0,West,17.3,23.0,0.00,Snow,Light Snow,280,2012-11-12 16:53:00
11:53 AM,24.1,12.9,62,30.07,10.0,West,16.1,24.2,0.00,,Overcast,270,2012-11-12 17:53:00
12:34 PM,24.8,12.2,59,30.03,10.0,West,20.7,24.2,N/A,,Overcast,280,2012-11-12 18:34:00
12:53 PM,25.0,14.0,63,30.08,10.0,West,17.3,23.0,N/A,,Overcast,270,2012-11-12 18:53:00
1:20 PM,24.8,14.0,64,30.05,10.0,West,17.3,25.3,N/A,,Overcast,270,2012-11-12 19:20:00
1:50 PM,24.8,14.0,64,30.06,10.0,West,18.4,25.3,N/A,,Overcast,280,2012-11-12 19:50:00
1:53 PM,25.0,14.0,63,30.10,10.0,WNW,15.0,25.3,N/A,,Overcast,290,2012-11-12 19:53:00
2:53 PM,26.1,14.0,60,30.12,10.0,West,16.1,23.0,N/A,,Mostly Cloudy,270,2012-11-12 20:53:00
3:29 PM,26.6,14.0,59,30.10,10.0,West,16.1,24.2,N/A,,Overcast,270,2012-11-12 21:29:00
3:53 PM,25.0,14.0,63,30.16,10.0,West,17.3,25.3,N/A,,Overcast,270,2012-11-12 21:53:00
4:53 PM,26.1,15.1,63,30.19,10.0,West,12.7,-,N/A,,Overcast,270,2012-11-12 22:53:00
5:42 PM,24.8,15.8,69,30.17,10.0,WNW,12.7,20.7,N/A,,Overcast,290,2012-11-12 23:42:00
5:53 PM,25.0,15.1,66,30.21,10.0,West,12.7,-,N/A,,Overcast,270,2012-11-12 23:53:00
6:53 PM,24.1,15.1,69,30.24,10.0,WNW,11.5,-,N/A,,Overcast,290,2012-11-13 00:53:00
7:53 PM,24.1,15.1,69,30.26,10.0,WNW,11.5,19.6,N/A,,Mostly Cloudy,290,2012-11-13 01:53:00
8:49 PM,23.0,15.8,74,30.24,10.0,WNW,9.2,-,N/A,,Scattered Clouds,290,2012-11-13 02:49:00
8:53 PM,23.0,15.1,72,30.28,10.0,WNW,9.2,-,N/A,,Partly Cloudy,290,2012-11-13 02:53:00
9:53 PM,21.9,15.1,75,30.30,10.0,West,10.4,-,N/A,,Mostly Cloudy,280,2012-11-13 03:53:00
10:48 PM,21.2,15.8,80,30.27,10.0,West,5.8,-,N/A,,Partly Cloudy,270,2012-11-13 04:48:00
10:53 PM,21.9,15.1,75,30.32,10.0,West,4.6,-,N/A,,Partly Cloudy,270,2012-11-13 04:53:00
11:53 PM,21.0,15.1,78,30.33,10.0,West,4.6,-,N/A,,Partly Cloudy,260,2012-11-13 05:53:00